Hourly Data Report for June 22, 2022

TORONTO CITY
ONTARIO
Current Station Operator: ECCC - MSC

43°40'00.000" N
79°24'00.000" W
112.50 m
6158355
71508
XTO

Download Data

Hourly Data (June 2022)
Hourly Data Report for June 22, 2022
TIME
LST
Temp Definition
°C
Dew Point Definition
°C
Rel Hum Definition
%
Precip. Amount Definition
mm

Wind Dir Definition
10's deg

Wind Spd Definition
km/h
Visibility Definition
km
Stn Press Definition
kPa
Hmdx Definition


Wind Chill Definition


Weather Definition


00:00 22.3 16.7 71 0.0       99.83 27   LegendNANA
01:00 22.0 17.3 75 0.0       99.81 27   LegendNANA
02:00 21.9 17.3 75 0.0       99.79 27   LegendNANA
03:00 22.0 17.4 75 0.0       99.74 28   LegendNANA
04:00 22.3 17.3 73 0.0       99.70 28   LegendNANA
05:00 21.7 17.3 76 0.0       99.71 27   LegendNANA
06:00 22.1 17.7 76 0.0       99.75 28   LegendNANA
07:00 24.4 19.6 75 0.0       99.74 32   LegendNANA
08:00 27.6 18.6 58 0.0       99.73 34   LegendNANA
09:00 28.7 19.1 56 0.0       99.71 36   LegendNANA
10:00 31.2 20.3 52 0.0       99.69 39   LegendNANA
11:00 30.2 20.4 56 0.0       99.66 38   LegendNANA
12:00 31.5 21.5 55 0.0       99.63 40   LegendNANA
13:00 34.3 19.5 42 0.0       99.57 41   LegendNANA
14:00 35.4 14.2 28 0.0       99.54 39   LegendNANA
15:00 33.2 17.7 40 0.0       99.62 39   LegendNANA
16:00 32.6 16.9 39 0.0       99.60 38   LegendNANA
17:00 30.8 16.5 42 0.0       99.60 36   LegendNANA
18:00 29.0 15.2 43 0.0       99.64 33   LegendNANA
19:00 27.6 13.3 41 0.0       99.70 31   LegendNANA
20:00 25.9 13.9 48 0.0       99.72 29   LegendNANA
21:00 24.6 14.1 52 0.0       99.82 28   LegendNANA
22:00 23.5 13.6 54 0.0       99.85 27   LegendNANA
23:00 22.0 11.0 50 0.0       99.88     LegendNANA

Notes on Data Quality.

Legend

  • E = Estimated
  • M = Missing
  • NA = Not Available*
  • [empty] = Indicates an unobserved value
Date modified: